Location: Newark
(49.8348°N, 24.0280°E)
Time: 07:40:49
(UTC+00:00)

Transit 2A - Pass Details

Date: 20 January 2020
Orbit: 600 x 959 km, 66.7° (Epoch: 18 February)

Event Time Altitude Azimuth Distance (km) Brightness Sun altitude
Rises 04:14:51 0° 321° (NW) 2,943 - -18.5°
Reaches altitude 10° 04:17:03 10° 319° (NW) 2,066 - -18.1°
Exits shadow 04:19:23 30° 311° (NW) 1,216 6.6 -17.7°
Maximum altitude 04:21:41 66° 238° (WSW) 758 5.8 -17.4°
Drops below altitude 10° 04:26:44 10° 157° (SSE) 2,258 8.9 -16.6°
Sets 04:29:15 0° 154° (SSE) 3,240 9.8 -16.2°
